OAL101 LEBA-LPCS

Flight info

Callsign OAL101
Flight time 1h 13m
Altitude 6500
Route WHISKY HOMACHUELOS RIOVIAR MONASTERIO FREGENAL MOURAO MAXED VALVE PINHEIRO SETUBAL FONTEDATELHA COVADOVAPOR CHARLE
Aircraft B738/M-SDGIJ1LRWY/SB1

Departure

Time 2026-05-06 19:02
Airport Córdoba Airport (LEBA)

Arrival

Time 2026-05-06 20:16
Airport Cascais Airport (LPCS)
Time Latitude Longitude Altitude Speed Heading
2026-05-06 18:53 37.84334 -4.84541 310 ft 0 kts 120°
2026-05-06 19:00 37.84333 -4.84539 310 ft 3 kts 120°
2026-05-06 19:00 37.84351 -4.84490 310 ft 12 kts 13°
2026-05-06 19:00 37.84441 -4.84444 310 ft 12 kts 10°
2026-05-06 19:00 37.84484 -4.84500 310 ft 7 kts 299°
2026-05-06 19:01 37.84517 -4.84577 310 ft 9 kts 298°
2026-05-06 19:01 37.84526 -4.84597 310 ft 0 kts 298°
2026-05-06 19:02 37.84537 -4.84642 310 ft 18 kts 249°
2026-05-06 19:02 37.84178 -4.84902 309 ft 103 kts 208°
2026-05-06 19:02 37.83427 -4.85424 533 ft 126 kts 208°
2026-05-06 19:02 37.82669 -4.85977 1110 ft 135 kts 209°
2026-05-06 19:03 37.81797 -4.86664 1440 ft 160 kts 227°
2026-05-06 19:03 37.81429 -4.88064 1783 ft 183 kts 272°
2026-05-06 19:03 37.81496 -4.89754 2119 ft 199 kts 257°
2026-05-06 19:03 37.81333 -4.91550 2429 ft 212 kts 276°
2026-05-06 19:04 37.81546 -4.93440 2739 ft 220 kts 274°
2026-05-06 19:04 37.81693 -4.95362 3026 ft 213 kts 270°
2026-05-06 19:04 37.81743 -4.97184 3297 ft 200 kts 272°
2026-05-06 19:04 37.81710 -4.98897 3568 ft 189 kts 254°
2026-05-06 19:05 37.81143 -5.00394 3859 ft 186 kts 242°
2026-05-06 19:05 37.80788 -5.01972 4155 ft 187 kts 258°
2026-05-06 19:05 37.80540 -5.03599 4438 ft 189 kts 266°
2026-05-06 19:05 37.80821 -5.05276 4541 ft 200 kts 289°
2026-05-06 19:06 37.81305 -5.06975 4531 ft 211 kts 289°
2026-05-06 19:06 37.81673 -5.08842 4526 ft 219 kts 275°
2026-05-06 19:06 37.81820 -5.10778 4531 ft 224 kts 276°
2026-05-06 19:06 37.81994 -5.12766 4529 ft 227 kts 276°
2026-05-06 19:07 37.82217 -5.14769 4522 ft 229 kts 277°
2026-05-06 19:07 37.82436 -5.16807 4525 ft 230 kts 277°
2026-05-06 19:07 37.82657 -5.18820 4528 ft 231 kts 277°
2026-05-06 19:07 37.82875 -5.20842 4523 ft 231 kts 277°
2026-05-06 19:08 37.83094 -5.22844 4519 ft 228 kts 277°
2026-05-06 19:08 37.83310 -5.24842 4520 ft 227 kts 277°
2026-05-06 19:08 37.83700 -5.26803 4527 ft 226 kts 287°
2026-05-06 19:08 37.84135 -5.28720 4530 ft 226 kts 285°
2026-05-06 19:09 37.84592 -5.30645 4530 ft 225 kts 287°
2026-05-06 19:09 37.85061 -5.32557 4530 ft 224 kts 287°
2026-05-06 19:09 37.85530 -5.34457 4531 ft 223 kts 287°
2026-05-06 19:09 37.85997 -5.36341 4534 ft 222 kts 287°
2026-05-06 19:10 37.86518 -5.38445 4536 ft 222 kts 287°
2026-05-06 19:10 37.86986 -5.40325 4537 ft 221 kts 287°
2026-05-06 19:10 37.87455 -5.42204 4540 ft 221 kts 287°
2026-05-06 19:10 37.87912 -5.44061 4541 ft 221 kts 287°
2026-05-06 19:11 37.88379 -5.45955 4543 ft 221 kts 287°
2026-05-06 19:11 37.88840 -5.47830 4544 ft 222 kts 287°
2026-05-06 19:11 37.89300 -5.49702 4546 ft 222 kts 287°
2026-05-06 19:11 37.89771 -5.51583 4544 ft 221 kts 287°
2026-05-06 19:12 37.90239 -5.53438 4542 ft 221 kts 287°
2026-05-06 19:12 37.90717 -5.55311 4543 ft 220 kts 287°
2026-05-06 19:12 37.91197 -5.57159 4542 ft 221 kts 287°
2026-05-06 19:12 37.91688 -5.59031 4546 ft 221 kts 287°
2026-05-06 19:13 37.92179 -5.60888 4551 ft 221 kts 287°
2026-05-06 19:13 37.92671 -5.62749 4546 ft 221 kts 287°
2026-05-06 19:13 37.93164 -5.64614 4545 ft 221 kts 287°
2026-05-06 19:13 37.93581 -5.66516 4544 ft 221 kts 282°
2026-05-06 19:14 37.93953 -5.68420 4544 ft 221 kts 281°
2026-05-06 19:14 37.94338 -5.70312 4543 ft 220 kts 284°
2026-05-06 19:14 37.94751 -5.72188 4544 ft 219 kts 283°
2026-05-06 19:14 37.95159 -5.74054 4660 ft 212 kts 283°
2026-05-06 19:15 37.95541 -5.75801 4989 ft 202 kts 283°
2026-05-06 19:15 37.95916 -5.77509 5328 ft 198 kts 283°
2026-05-06 19:15 37.96279 -5.79168 5665 ft 194 kts 283°
2026-05-06 19:15 37.96641 -5.80836 6011 ft 192 kts 283°
2026-05-06 19:16 37.96987 -5.82463 6349 ft 190 kts 283°
2026-05-06 19:16 37.97332 -5.84100 6546 ft 196 kts 283°
2026-05-06 19:16 37.97697 -5.85840 6552 ft 208 kts 283°
2026-05-06 19:16 37.98083 -5.87660 6546 ft 216 kts 284°
2026-05-06 19:17 37.98500 -5.89522 6545 ft 221 kts 284°
2026-05-06 19:17 37.98927 -5.91445 6542 ft 225 kts 284°
2026-05-06 19:17 37.99360 -5.93371 6539 ft 226 kts 284°
2026-05-06 19:17 37.99797 -5.95332 6539 ft 227 kts 284°
2026-05-06 19:18 38.00235 -5.97297 6535 ft 229 kts 284°
2026-05-06 19:18 38.00673 -5.99253 6535 ft 229 kts 284°
2026-05-06 19:18 38.01107 -6.01198 6536 ft 229 kts 284°
2026-05-06 19:18 38.01543 -6.03151 6539 ft 229 kts 284°
2026-05-06 19:19 38.01987 -6.05136 6536 ft 229 kts 284°
2026-05-06 19:19 38.02461 -6.07083 6536 ft 230 kts 290°
2026-05-06 19:19 38.03184 -6.08914 6541 ft 230 kts 295°
2026-05-06 19:19 38.03928 -6.10747 6540 ft 230 kts 297°
2026-05-06 19:20 38.04565 -6.12612 6538 ft 229 kts 287°
2026-05-06 19:20 38.05112 -6.14547 6542 ft 229 kts 289°
2026-05-06 19:20 38.05637 -6.16491 6540 ft 229 kts 287°
2026-05-06 19:20 38.06153 -6.18407 6542 ft 229 kts 287°
2026-05-06 19:21 38.06657 -6.20358 6540 ft 229 kts 286°
2026-05-06 19:21 38.07144 -6.22302 6541 ft 229 kts 287°
2026-05-06 19:21 38.07629 -6.24258 6542 ft 229 kts 286°
2026-05-06 19:21 38.08105 -6.26194 6541 ft 229 kts 285°
2026-05-06 19:22 38.08537 -6.28169 6541 ft 229 kts 284°
2026-05-06 19:22 38.08968 -6.30123 6540 ft 229 kts 284°
2026-05-06 19:22 38.09404 -6.32106 6539 ft 229 kts 285°
2026-05-06 19:22 38.09831 -6.34063 6539 ft 228 kts 284°
2026-05-06 19:23 38.10259 -6.36023 6537 ft 228 kts 284°
2026-05-06 19:23 38.10683 -6.37988 6538 ft 227 kts 284°
2026-05-06 19:23 38.11094 -6.39936 6538 ft 226 kts 284°
2026-05-06 19:23 38.11514 -6.41890 6537 ft 226 kts 285°
2026-05-06 19:24 38.11903 -6.43847 6538 ft 226 kts 284°
2026-05-06 19:24 38.12322 -6.45800 6538 ft 225 kts 286°
2026-05-06 19:24 38.12748 -6.47729 6536 ft 226 kts 287°
2026-05-06 19:24 38.13180 -6.49656 6537 ft 227 kts 289°
2026-05-06 19:25 38.13649 -6.51598 6538 ft 228 kts 288°
2026-05-06 19:25 38.14114 -6.53561 6536 ft 229 kts 288°
2026-05-06 19:25 38.14572 -6.55502 6538 ft 230 kts 288°
2026-05-06 19:25 38.15041 -6.57472 6538 ft 230 kts 288°
2026-05-06 19:26 38.15511 -6.59430 6536 ft 229 kts 289°
2026-05-06 19:26 38.15982 -6.61393 6535 ft 229 kts 289°
2026-05-06 19:26 38.16455 -6.63364 6534 ft 230 kts 289°
2026-05-06 19:26 38.16925 -6.65334 6535 ft 230 kts 289°
2026-05-06 19:27 38.17545 -6.67208 6537 ft 230 kts 295°
2026-05-06 19:27 38.18193 -6.69092 6535 ft 231 kts 295°
2026-05-06 19:27 38.18848 -6.70990 6534 ft 231 kts 293°
2026-05-06 19:27 38.19373 -6.72922 6534 ft 232 kts 290°
2026-05-06 19:28 38.19902 -6.74913 6534 ft 232 kts 289°
2026-05-06 19:28 38.20398 -6.76878 6533 ft 233 kts 289°
2026-05-06 19:28 38.20892 -6.78838 6535 ft 233 kts 289°
2026-05-06 19:28 38.21393 -6.80802 6532 ft 233 kts 289°
2026-05-06 19:29 38.21899 -6.82785 6533 ft 233 kts 289°
2026-05-06 19:29 38.22403 -6.84782 6533 ft 233 kts 289°
2026-05-06 19:29 38.22902 -6.86749 6531 ft 233 kts 289°
2026-05-06 19:29 38.23407 -6.88742 6529 ft 234 kts 290°
2026-05-06 19:30 38.24047 -6.90680 6503 ft 234 kts 297°
2026-05-06 19:30 38.24728 -6.92559 6505 ft 234 kts 296°
2026-05-06 19:30 38.25424 -6.94472 6505 ft 233 kts 296°
2026-05-06 19:30 38.26109 -6.96359 6504 ft 234 kts 296°
2026-05-06 19:31 38.26799 -6.98255 6505 ft 233 kts 296°
2026-05-06 19:31 38.27473 -7.00154 6501 ft 233 kts 295°
2026-05-06 19:31 38.28797 -7.03973 6505 ft 234 kts 295°
2026-05-06 19:32 38.29457 -7.05879 6500 ft 234 kts 295°
2026-05-06 19:32 38.30127 -7.07815 6498 ft 234 kts 295°
2026-05-06 19:32 38.30779 -7.09701 6506 ft 234 kts 295°
2026-05-06 19:32 38.31448 -7.11632 6508 ft 234 kts 295°
2026-05-06 19:33 38.32103 -7.13524 6501 ft 234 kts 295°
2026-05-06 19:33 38.32743 -7.15453 6498 ft 234 kts 292°
2026-05-06 19:33 38.33319 -7.17405 6508 ft 234 kts 292°
2026-05-06 19:33 38.33906 -7.19364 6510 ft 234 kts 292°
2026-05-06 19:34 38.34493 -7.21339 6508 ft 234 kts 292°
2026-05-06 19:34 38.35077 -7.23290 6512 ft 235 kts 292°
2026-05-06 19:34 38.35650 -7.25206 6497 ft 235 kts 292°
2026-05-06 19:34 38.36236 -7.27167 6504 ft 234 kts 292°
2026-05-06 19:35 38.36822 -7.29131 6505 ft 234 kts 292°
2026-05-06 19:35 38.37402 -7.31081 6506 ft 235 kts 292°
2026-05-06 19:35 38.37991 -7.33057 6503 ft 235 kts 292°
2026-05-06 19:35 38.38582 -7.35041 6508 ft 235 kts 292°
2026-05-06 19:36 38.39160 -7.36986 6515 ft 235 kts 292°
2026-05-06 19:36 38.39722 -7.38876 6494 ft 212 kts 292°
2026-05-06 19:36 38.40222 -7.40584 6495 ft 196 kts 292°
2026-05-06 19:36 38.40683 -7.42158 6499 ft 184 kts 292°
2026-05-06 19:37 38.41123 -7.43665 6503 ft 175 kts 292°
2026-05-06 19:37 38.41546 -7.45117 6503 ft 169 kts 292°
2026-05-06 19:37 38.41952 -7.46518 6502 ft 164 kts 292°
2026-05-06 19:37 38.42215 -7.47427 6471 ft 164 kts 292°
2026-05-06 19:38 38.42743 -7.49260 6437 ft 161 kts 292°
2026-05-06 19:38 38.43131 -7.50606 6441 ft 158 kts 292°
2026-05-06 19:38 38.43511 -7.51926 6440 ft 156 kts 292°
2026-05-06 19:38 38.43887 -7.53239 6442 ft 161 kts 292°
2026-05-06 19:39 38.44312 -7.54706 6478 ft 189 kts 292°
2026-05-06 19:39 38.44809 -7.56382 6467 ft 207 kts 292°
2026-05-06 19:39 38.45328 -7.58133 6454 ft 210 kts 292°
2026-05-06 19:39 38.45849 -7.59900 6442 ft 211 kts 292°
2026-05-06 19:40 38.46413 -7.61670 6441 ft 214 kts 295°
2026-05-06 19:40 38.46994 -7.63450 6449 ft 218 kts 294°
2026-05-06 19:40 38.47584 -7.65250 6444 ft 220 kts 294°
2026-05-06 19:40 38.48179 -7.67070 6443 ft 219 kts 294°
2026-05-06 19:41 38.48775 -7.68896 6446 ft 219 kts 294°
2026-05-06 19:41 38.49361 -7.70688 6449 ft 218 kts 294°
2026-05-06 19:41 38.49950 -7.72487 6448 ft 218 kts 294°
2026-05-06 19:41 38.50545 -7.74306 6444 ft 218 kts 294°
2026-05-06 19:42 38.51133 -7.76105 6446 ft 218 kts 294°
2026-05-06 19:42 38.51721 -7.77903 6447 ft 218 kts 294°
2026-05-06 19:42 38.52311 -7.79708 6447 ft 218 kts 294°
2026-05-06 19:42 38.52875 -7.81528 6447 ft 219 kts 287°
2026-05-06 19:43 38.52952 -7.83486 6460 ft 219 kts 268°
2026-05-06 19:43 38.52937 -7.85457 6454 ft 219 kts 270°
2026-05-06 19:43 38.52911 -7.87444 6447 ft 219 kts 270°
2026-05-06 19:43 38.52885 -7.89391 6450 ft 219 kts 269°
2026-05-06 19:44 38.52862 -7.91071 6456 ft 219 kts 269°
2026-05-06 19:44 38.52837 -7.93064 6455 ft 220 kts 269°
2026-05-06 19:44 38.52813 -7.95030 6457 ft 220 kts 269°
2026-05-06 19:44 38.52857 -7.96993 6456 ft 220 kts 277°
2026-05-06 19:45 38.53051 -7.98947 6456 ft 219 kts 278°
2026-05-06 19:45 38.53267 -8.00901 6454 ft 219 kts 274°
2026-05-06 19:45 38.53287 -8.02861 6460 ft 219 kts 272°
2026-05-06 19:45 38.53321 -8.04830 6458 ft 220 kts 271°
2026-05-06 19:46 38.53348 -8.06798 6458 ft 217 kts 271°
2026-05-06 19:46 38.53346 -8.08737 6448 ft 211 kts 268°
2026-05-06 19:46 38.53294 -8.10605 6457 ft 207 kts 269°
2026-05-06 19:46 38.53249 -8.12463 6455 ft 205 kts 268°
2026-05-06 19:47 38.53203 -8.14282 6452 ft 202 kts 268°
2026-05-06 19:47 38.53158 -8.16071 6458 ft 199 kts 269°
2026-05-06 19:47 38.53113 -8.17862 6459 ft 194 kts 268°
2026-05-06 19:47 38.53071 -8.19543 6453 ft 183 kts 268°
2026-05-06 19:48 38.53031 -8.21140 6449 ft 171 kts 268°
2026-05-06 19:48 38.52995 -8.22634 6447 ft 161 kts 268°
2026-05-06 19:48 38.52960 -8.24051 6453 ft 154 kts 268°
2026-05-06 19:48 38.52929 -8.25394 6453 ft 148 kts 268°
2026-05-06 19:49 38.52899 -8.26708 6458 ft 146 kts 269°
2026-05-06 19:49 38.52869 -8.28013 6468 ft 146 kts 268°
2026-05-06 19:49 38.52839 -8.29335 6469 ft 146 kts 268°
2026-05-06 19:49 38.52811 -8.30645 6471 ft 147 kts 268°
2026-05-06 19:50 38.52782 -8.31966 6466 ft 147 kts 269°
2026-05-06 19:50 38.52751 -8.33283 6462 ft 147 kts 269°
2026-05-06 19:50 38.52719 -8.34599 6462 ft 147 kts 268°
2026-05-06 19:50 38.52687 -8.35930 6467 ft 147 kts 268°
2026-05-06 19:51 38.52657 -8.37254 6471 ft 147 kts 268°
2026-05-06 19:51 38.52630 -8.38579 6475 ft 147 kts 268°
2026-05-06 19:51 38.52606 -8.39881 6468 ft 145 kts 269°
2026-05-06 19:51 38.52580 -8.41187 6389 ft 145 kts 268°
2026-05-06 19:52 38.52551 -8.42518 6161 ft 150 kts 269°
2026-05-06 19:52 38.52490 -8.43858 5922 ft 153 kts 266°
2026-05-06 19:52 38.52408 -8.45230 5712 ft 153 kts 266°
2026-05-06 19:52 38.52321 -8.46601 5513 ft 152 kts 267°
2026-05-06 19:53 38.52244 -8.47954 5316 ft 151 kts 268°
2026-05-06 19:53 38.52163 -8.49289 5113 ft 150 kts 268°
2026-05-06 19:53 38.52075 -8.50630 4913 ft 149 kts 268°
2026-05-06 19:53 38.51981 -8.51951 4723 ft 148 kts 268°
2026-05-06 19:54 38.51881 -8.53271 4527 ft 147 kts 268°
2026-05-06 19:54 38.51776 -8.54547 4457 ft 136 kts 268°
2026-05-06 19:54 38.51672 -8.55732 4468 ft 134 kts 268°
2026-05-06 19:54 38.51568 -8.56946 4481 ft 139 kts 268°
2026-05-06 19:55 38.51462 -8.58221 4480 ft 144 kts 268°
2026-05-06 19:55 38.51355 -8.59525 4475 ft 147 kts 268°
2026-05-06 19:55 38.51248 -8.60842 4476 ft 150 kts 268°
2026-05-06 19:55 38.51142 -8.62175 4466 ft 145 kts 268°
2026-05-06 19:56 38.51037 -8.63437 4464 ft 138 kts 268°
2026-05-06 19:56 38.50932 -8.64636 4466 ft 131 kts 268°
2026-05-06 19:56 38.50832 -8.65780 4468 ft 126 kts 267°
2026-05-06 19:56 38.50732 -8.66884 4463 ft 122 kts 267°
2026-05-06 19:57 38.50633 -8.67963 4460 ft 120 kts 267°
2026-05-06 19:57 38.50678 -8.69033 4409 ft 118 kts 297°
2026-05-06 19:57 38.51246 -8.69727 4404 ft 115 kts 343°
2026-05-06 19:57 38.52050 -8.69867 4478 ft 113 kts 355°
2026-05-06 19:58 38.52851 -8.69840 4480 ft 118 kts 19°
2026-05-06 19:58 38.53450 -8.69096 4486 ft 125 kts 66°
2026-05-06 19:58 38.53511 -8.67975 4487 ft 132 kts 101°
2026-05-06 19:58 38.52947 -8.67014 4486 ft 140 kts 147°
2026-05-06 19:59 38.51981 -8.66808 4486 ft 143 kts 193°
2026-05-06 19:59 38.51088 -8.67577 4522 ft 171 kts 237°
2026-05-06 19:59 38.50746 -8.69145 4517 ft 193 kts 270°
2026-05-06 19:59 38.50977 -8.70887 4502 ft 206 kts 289°
2026-05-06 20:00 38.51355 -8.72715 4486 ft 217 kts 279°
2026-05-06 20:00 38.51307 -8.74711 4486 ft 224 kts 268°
2026-05-06 20:00 38.51243 -8.76742 4484 ft 227 kts 269°
2026-05-06 20:00 38.51162 -8.78695 4477 ft 211 kts 269°
2026-05-06 20:01 38.51081 -8.80534 4469 ft 197 kts 269°
2026-05-06 20:01 38.51004 -8.82233 4473 ft 188 kts 270°
2026-05-06 20:01 38.50967 -8.83899 4473 ft 182 kts 271°
2026-05-06 20:01 38.50935 -8.85554 4295 ft 188 kts 271°
2026-05-06 20:02 38.50902 -8.87244 3992 ft 185 kts 274°
2026-05-06 20:02 38.51008 -8.88844 3685 ft 179 kts 279°
2026-05-06 20:02 38.51117 -8.90432 3362 ft 176 kts 278°
2026-05-06 20:02 38.51155 -8.91995 3041 ft 173 kts 276°
2026-05-06 20:03 38.51162 -8.93531 2736 ft 169 kts 276°
2026-05-06 20:03 38.51203 -8.95026 2443 ft 164 kts 277°
2026-05-06 20:03 38.51236 -8.96482 2161 ft 161 kts 277°
2026-05-06 20:03 38.51258 -8.97869 1982 ft 151 kts 277°
2026-05-06 20:04 38.51267 -8.99134 1966 ft 133 kts 277°
2026-05-06 20:04 38.51323 -9.00251 1959 ft 113 kts 283°
2026-05-06 20:04 38.51426 -9.01187 1958 ft 100 kts 290°
2026-05-06 20:04 38.51578 -9.02137 1997 ft 112 kts 288°
2026-05-06 20:05 38.51806 -9.03149 2022 ft 123 kts 297°
2026-05-06 20:05 38.52136 -9.04232 2023 ft 134 kts 296°
2026-05-06 20:05 38.52512 -9.05387 2006 ft 142 kts 298°
2026-05-06 20:05 38.52899 -9.06582 2005 ft 147 kts 298°
2026-05-06 20:06 38.53294 -9.07830 2006 ft 151 kts 297°
2026-05-06 20:06 38.53702 -9.09106 1997 ft 154 kts 297°
2026-05-06 20:06 38.54121 -9.10388 1999 ft 154 kts 297°
2026-05-06 20:06 38.54545 -9.11684 2001 ft 156 kts 291°
2026-05-06 20:07 38.54677 -9.13084 1999 ft 155 kts 279°
2026-05-06 20:07 38.54734 -9.14389 1974 ft 137 kts 278°
2026-05-06 20:07 38.54765 -9.15543 1964 ft 121 kts 279°
2026-05-06 20:07 38.54774 -9.16568 1973 ft 105 kts 279°
2026-05-06 20:08 38.54776 -9.17451 1966 ft 91 kts 279°
2026-05-06 20:08 38.54773 -9.18290 1972 ft 99 kts 279°
2026-05-06 20:08 38.54833 -9.19205 2036 ft 108 kts 288°
2026-05-06 20:08 38.55040 -9.20137 2006 ft 108 kts 293°
2026-05-06 20:09 38.55258 -9.21058 1997 ft 106 kts 293°
2026-05-06 20:09 38.55465 -9.21973 1995 ft 104 kts 291°
2026-05-06 20:09 38.55671 -9.22867 1995 ft 103 kts 293°
2026-05-06 20:09 38.55862 -9.23756 1997 ft 102 kts 291°
2026-05-06 20:10 38.56115 -9.24605 2002 ft 99 kts 301°
2026-05-06 20:10 38.56390 -9.25419 2000 ft 99 kts 300°
2026-05-06 20:10 38.56661 -9.26246 2002 ft 99 kts 300°
2026-05-06 20:10 38.56993 -9.27022 2003 ft 96 kts 316°
2026-05-06 20:11 38.57485 -9.27587 1999 ft 93 kts 334°
2026-05-06 20:11 38.58090 -9.27894 2006 ft 96 kts 340°
2026-05-06 20:11 38.58801 -9.28271 1989 ft 118 kts 339°
2026-05-06 20:11 38.59603 -9.28702 2012 ft 128 kts 340°
2026-05-06 20:12 38.60456 -9.29157 2013 ft 136 kts 339°
2026-05-06 20:12 38.61373 -9.29638 2010 ft 142 kts 337°
2026-05-06 20:12 38.62309 -9.30135 2007 ft 146 kts 336°
2026-05-06 20:12 38.63162 -9.30899 2005 ft 146 kts 322°
2026-05-06 20:13 38.63959 -9.31714 1998 ft 144 kts 323°
2026-05-06 20:13 38.64681 -9.32473 2040 ft 122 kts 324°
2026-05-06 20:13 38.65432 -9.32845 1991 ft 108 kts 346°
2026-05-06 20:13 38.66156 -9.33095 1771 ft 112 kts 344°
2026-05-06 20:14 38.66925 -9.33348 1490 ft 102 kts 343°
2026-05-06 20:14 38.67484 -9.33670 1356 ft 81 kts 343°
2026-05-06 20:14 38.68011 -9.33891 1091 ft 77 kts 347°
2026-05-06 20:14 38.68553 -9.34071 873 ft 82 kts 342°
2026-05-06 20:15 38.69094 -9.34256 642 ft 81 kts 340°
2026-05-06 20:15 38.69717 -9.34495 564 ft 91 kts 342°
2026-05-06 20:15 38.70310 -9.34717 491 ft 87 kts 341°
2026-05-06 20:15 38.70938 -9.34928 481 ft 99 kts 338°
2026-05-06 20:16 38.71593 -9.35187 368 ft 93 kts 342°
2026-05-06 20:16 38.72158 -9.35398 308 ft 74 kts 342°
2026-05-06 20:16 38.72533 -9.35538 319 ft 29 kts 342°
2026-05-06 20:16 38.72554 -9.35549 320 ft 0 kts 292°
2026-05-06 20:17 38.72550 -9.35560 320 ft 6 kts 236°
2026-05-06 20:17 38.72517 -9.35627 319 ft 5 kts 219°
2026-05-06 20:17 38.72504 -9.35630 318 ft 0 kts 169°
2026-05-06 20:17 38.72484 -9.35624 318 ft 9 kts 164°
2026-05-06 20:18 38.72396 -9.35590 315 ft 14 kts 164°
2026-05-06 20:18 38.72327 -9.35599 313 ft 7 kts 249°
2026-05-06 20:18 38.72311 -9.35672 311 ft 9 kts 255°
2026-05-06 20:18 38.72282 -9.35744 311 ft 11 kts 189°
2026-05-06 20:19 38.72197 -9.35744 309 ft 8 kts 182°
2026-05-06 20:19 38.72185 -9.35739 309 ft 0 kts 114°
2026-05-06 20:19 38.72185 -9.35741 309 ft 1 kts 96°
2026-05-06 20:19 38.72184 -9.35762 309 ft 0 kts 86°
2026-05-06 20:20 38.72184 -9.35768 309 ft 0 kts 85°
2026-05-06 20:20 38.72183 -9.35773 309 ft 0 kts 88°